Location: Ash Swamp
(41.5170°N, 74.6157°W)
Time: 02:35:44
(UTC+00:00)

Cosmos 1315 Rocket - Pass Details

Date: 14 July 2020
Orbit: 530 x 568 km, 81.2° (Epoch: 14 August)

Event Time Altitude Azimuth Distance (km) Brightness Sun altitude
Rises 00:56:45 0° 1° (N) 2,770 6.9 -4.8°
Reaches altitude 10° 00:59:12 10° 14° (NNE) 1,872 5.8 -5.2°
Maximum altitude 01:02:45 27° 73° (ENE) 1,107 4.1 -5.7°
Drops below altitude 10° 01:06:16 10° 132° (SE) 1,863 4.8 -6.2°
Enters shadow 01:06:51 - 136° (SE) 2,064 5.1 -6.3°
